Quantico, VA

12:08 AM EDT on September 28, 2016 (GMT -0400)
Quantico Marine Corps Air Facility

Weather History for KNYG - October, 2011

Change the Weather History Date:

Thursday, October 20, 2011

  Actual Average Record
Temperature  
Mean Temperature 60 °F -  
Max Temperature 68 °F 63 °F 75 °F (1998)
Min Temperature 53 °F 44 °F 34 °F (2008)
Degree Days  
Heating Degree Days 4    
Growing Degree Days 10 (Base 50)    
Moisture  
Dew Point 47 °F    
Average Humidity 64    
Maximum Humidity 84    
Minimum Humidity 42    
Precipitation  
Precipitation 0.01 in - - ()
Sea Level Pressure  
Sea Level Pressure 29.52 in    
Wind  
Wind Speed 14 mph (SW)    
Max Wind Speed 22 mph    
Max Gust Speed 31 mph    
Visibility 6 miles    
Events      
Averages and records for this station are not official NWS values.
T = Trace of Precipitation, MM = Missing Value Source: NWS Daily Summary

Daily Weather History Graph

Daily Weather History Graph

Search for Another Location

Airport or City:

Trip Planner

Search our weather history database for the weather conditions in past years. The results will help you decide how hot, cold, wet, or windy it might be!

Date:

Astronomy

Oct. 20, 2011 Rise Set
Actual Time 7:22 AM EDT 6:24 PM EDT
Civil Twilight 6:56 AM EDT 6:51 PM EDT
Nautical Twilight 6:25 AM EDT 7:22 PM EDT
Astronomical Twilight 5:54 AM EDT 7:52 PM EDT
Moon 12:10 AM EDT (10/20) 2:27 PM EDT (10/20)
Length of Visible Light 11h 55m
Length of Day
11h 01m
Last Quarter, 44% of the Moon is Illuminated
Oct 20
Last Quarter
Oct 26
New
Nov 2
First Quarter
Nov 10
Full
Nov 18
Last Quarter

Hourly Weather History & Observations

Time (EDT) Temp. Dew Point Humidity Pressure Visibility Wind Dir Wind Speed Gust Speed Precip Events Conditions
12:32 AM 68.0 °F 62.6 °F 83% 29.29 in 0.8 mi SSW 9.2 mph - N/A   Overcast
12:47 AM 68.0 °F 62.6 °F 83% 29.29 in 0.8 mi SSW 13.8 mph - N/A   Overcast
12:56 AM 68.0 °F 63.0 °F 84% 29.30 in 0.8 mi SW 11.5 mph - N/A   Mostly Cloudy
1:56 AM 68.0 °F 62.1 °F 81% 29.30 in 0.8 mi SW 9.2 mph - N/A   Mostly Cloudy
2:28 AM 66.2 °F 57.2 °F 73% 29.31 in 0.8 mi SW 18.4 mph 26.5 mph 0.01 in   Scattered Clouds
2:56 AM 64.0 °F 55.9 °F 75% 29.33 in 0.8 mi SW 13.8 mph 25.3 mph 0.01 in   Clear
3:24 AM 62.6 °F 55.4 °F 77% 29.34 in 0.8 mi SW 19.6 mph 27.6 mph N/A   Mostly Cloudy
3:53 AM 62.6 °F 55.4 °F 77% 29.36 in 0.8 mi SW 21.9 mph 27.6 mph N/A   Mostly Cloudy
3:56 AM 61.0 °F 54.0 °F 78% 29.37 in 0.8 mi SW 20.7 mph 27.6 mph N/A   Mostly Cloudy
4:13 AM 60.8 °F 51.8 °F 72% 29.37 in 0.8 mi SW 19.6 mph 24.2 mph N/A   Overcast
4:56 AM 59.0 °F 51.1 °F 75% 29.40 in 0.8 mi SW 13.8 mph - N/A   Mostly Cloudy
5:05 AM 57.2 °F 50.0 °F 77% 29.41 in 0.8 mi SW 13.8 mph 26.5 mph N/A   Mostly Cloudy
5:56 AM 57.0 °F 48.9 °F 74% 29.44 in 0.8 mi SW 17.3 mph 24.2 mph N/A   Partly Cloudy
6:19 AM 55.4 °F 48.2 °F 77% 29.45 in 10.0 mi SW 15.0 mph 21.9 mph N/A   Scattered Clouds
6:56 AM 55.0 °F 46.0 °F 72% 29.48 in 10.0 mi SW 15.0 mph 21.9 mph N/A   Clear
7:56 AM 53.1 °F 44.1 °F 71% 29.52 in 10.0 mi SW 16.1 mph - N/A   Clear
8:56 AM 55.0 °F 43.0 °F 64% 29.55 in 10.0 mi SW 16.1 mph 21.9 mph N/A   Clear
9:56 AM 57.0 °F 42.1 °F 57% 29.57 in 10.0 mi SW 20.7 mph 29.9 mph N/A   Clear
10:56 AM 59.0 °F 39.9 °F 49% 29.58 in 10.0 mi WSW 15.0 mph 27.6 mph N/A   Clear
11:56 AM 60.1 °F 37.9 °F 44% 29.58 in 10.0 mi West 16.1 mph 24.2 mph N/A   Mostly Cloudy
12:56 PM 61.0 °F 37.9 °F 42% 29.60 in 10.0 mi WSW 16.1 mph 31.1 mph N/A   Mostly Cloudy
1:56 PM 60.1 °F 39.0 °F 46% 29.60 in 10.0 mi WSW 18.4 mph 27.6 mph N/A   Overcast
2:56 PM 59.0 °F 39.0 °F 48% 29.62 in 10.0 mi SW 16.1 mph 24.2 mph N/A   Mostly Cloudy
3:56 PM 61.0 °F 39.9 °F 46% 29.63 in 10.0 mi SW 13.8 mph 23.0 mph N/A   Overcast
4:56 PM 60.1 °F 39.0 °F 46% 29.65 in 10.0 mi SW 13.8 mph 21.9 mph N/A   Mostly Cloudy
5:56 PM 60.1 °F 39.9 °F 47% 29.69 in 10.0 mi SW 9.2 mph - N/A   Overcast
6:56 PM 59.0 °F 39.0 °F 48% 29.72 in 10.0 mi WSW 10.4 mph 19.6 mph N/A   Overcast
7:56 PM 59.0 °F 39.0 °F 48% 29.75 in 10.0 mi SW 12.7 mph - N/A   Overcast
8:56 PM 57.0 °F 39.0 °F 51% 29.78 in 10.0 mi WSW 8.1 mph - N/A   Scattered Clouds
9:56 PM 55.0 °F 39.9 °F 57% 29.81 in 10.0 mi WSW 6.9 mph - N/A   Clear
10:56 PM 54.0 °F 39.0 °F 57% 29.83 in 10.0 mi WSW 9.2 mph - N/A   Clear
11:56 PM 53.1 °F 39.0 °F 59% 29.84 in 10.0 mi WSW 8.1 mph - N/A   Clear